User: anonymous   Login
Location: Armidale
(30.5016°S, 151.6662°E)
Time: 05:11:47
(UTC+10:00)
Language:

METEOR M2 - Orbit

View from above orbital plane
View from above orbital plane
View from above satellite
View from above satellite

Ground track
Ground track

The orbit data is extracted from the following two-line orbital elements,

1 40069U 14037A   21204.56509495 -.00000044  00000-0 -11157-5 0  9996
2 40069  98.4578 231.9226 0005209 185.4873 174.6248 14.20685571365161
Epoch (UTC): 23 July 2021 13:33:44
Eccentricity: 0.0005209
inclination: 98.4578°
perigee height: 819 km
apogee height: 827 km
right ascension of ascending node: 231.9226°
argument of perigee: 185.4873°
revolutions per day: 14.20685571
mean anomaly at epoch: 174.6248°
orbit number at epoch: 36516

The dashed part of the orbit path shows where the satellite is in the earth's shadow,  

DLR